STARLINK-4796 (53909 NORAD) Tracking and Keplerian Element Data

This shows tracking and keplerian element data for the satellite.

Feedback or suggestion? Click here.




ElementValue
Catalog53909
NameSTARLINK-4796
Epoch Orbit945
Epoch Day325.25001157
Epoch Year2022
RAAN329.5049
Inclination53.214
Eccentricity0.0004149
Argument of Perigee8.05
Mean Anonmoly89.6726
Mean Motion15.73146702
Decay Rate0.00026217
L11 53909U 22119Z 22325.25001157 .00026217 00000+0 19101-3 0 9998
L22 53909 53.2140 329.5049 0004149 8.0500 89.6726 15.73146702 9458



Live tracking and technical data element details for STARLINK-4796 (NORAD 53909). STARLINK-4796 can be tracked NOW for your location showing map with azimuth and elevation plus other details from your city location.







IsCatalogInMostPopularTable: catalog: 53909, numindb: 1
Update: records affected: 1



GetName: 53909 STARLINK-4796

Hit Count: updated at: Mon, 28 Nov 2022 22:11:32 GMT